Pagrindinis puslapis
METAR-TAF:

METAR-TAF

Oro uostai :

Wakkanai, Japonija

platuma: 45-24N, ilguma: 141-48E, Aukštis: 8 m

Dabartinis oras

Ataskaita buvo paskelbta 53 minutes, ne 03:00 UTC
Vėjas 5 kt iš Pietų/Pietvakarių
Temperatūra -1°C
Drėgmė 74%
Slėgis 1007 hPa
Matomumas 10 km arba daugiau
Mažai debesys ne aukštis 2000 ft
Išsisklaidę debesys ne aukštis 3000 ft
Su prošvaistėmis ne aukštis 9000 ft

METAR: RJCW 200300Z 20005KT 9999 FEW020 SCT030 BKN090 M01/M05 Q1007

Laikas: 12:53 (03:53 UTC)


TAF: trūkstamas

Orai ataskaitas ir orų prognozės (METAR, TAF).

turimą stotys yra geltonos ir raudonos taškus žemėlapyje.

Perkelti pele per norėdami pamatyti stoties vardą.

Tada spustelėkite, norėdami matyti oro stebėjimo ir prognozės.

Norėdami pakeisti žemėlapį: spustelėkite ant žalios mygtukų su juodo kryžiaus žemyn,; žalią mygtuką su brūkšneliu, jei norite nutolinti; arba žalių rodyklių gretimoms žemėlapius.


METAR-TAF: